When you browse on this site, cookies collect data to enhance your experience and personalize the content and advertising you see.
Visit our Privacy Policy to learn more. By continuing to use the site, you agree to this use of cookies and data.
  • En España
  • Lista de países
  • Para 7 días
  • Temperatura del agua
  • El tiempo en el mapa
  • Informadores
  • user-avatar
    Iniciar sesión

    Tiempo cada hora Rzeszow

    Hoy, 5 Junio, Viernes

    Tiempo Temperatura Precipitaciones Viento Presión Humedad
    00:00 +14°C° 0.1 mm 3 mps 731 mmHg 94%
    01:00 +14°C° 0.1 mm 4 mps 731 mmHg 93%
    02:00 +14°C° 0 mm 5 mps 730 mmHg 92%
    03:00 +14°C° 0 mm 6 mps 730 mmHg 91%
    04:00 +15°C° 0 mm 7 mps 729 mmHg 89%
    05:00 +15°C° 0 mm 7 mps 730 mmHg 87%
    06:00 +16°C° 0 mm 7 mps 730 mmHg 84%
    07:00 +16°C° 0 mm 7 mps 730 mmHg 82%
    08:00 +17°C° 0 mm 8 mps 730 mmHg 80%
    09:00 +18°C° 0 mm 8 mps 731 mmHg 79%
    10:00 +18°C° 0 mm 8 mps 731 mmHg 77%
    11:00 +20°C° 0 mm 8 mps 731 mmHg 75%
    12:00 +21°C° 0 mm 9 mps 731 mmHg 73%
    13:00 +22°C° 0 mm 9 mps 731 mmHg 72%
    14:00 +21°C° 0.1 mm 9 mps 732 mmHg 74%
    15:00 +21°C° 0.1 mm 9 mps 732 mmHg 76%
    16:00 +20°C° 0.1 mm 8 mps 732 mmHg 78%
    17:00 +18°C° 0.1 mm 7 mps 732 mmHg 80%
    18:00 +19°C° 0.1 mm 6 mps 732 mmHg 82%
    19:00 +17°C° 0.1 mm 5 mps 732 mmHg 84%
    20:00 +16°C° 1.2 mm 5 mps 732 mmHg 88%
    21:00 +16°C° 1.2 mm 5 mps 733 mmHg 91%
    22:00 +15°C° 1.2 mm 5 mps 733 mmHg 95%
    23:00 +14°C° 0.5 mm 4 mps 734 mmHg 95%

    Mañana, 6 Junio, Sábado

    Tiempo Temperatura Precipitaciones Viento Presión Humedad
    00:00 +14°C° 0.5 mm 3 mps 734 mmHg 95%
    01:00 +14°C° 0.5 mm 2 mps 735 mmHg 95%
    02:00 +14°C° 0.1 mm 2 mps 735 mmHg 95%
    03:00 +14°C° 0.1 mm 2 mps 736 mmHg 95%
    04:00 +14°C° 0.1 mm 2 mps 736 mmHg 95%
    05:00 +14°C° 0 mm 3 mps 737 mmHg 89%
    06:00 +17°C° 0 mm 3 mps 738 mmHg 82%
    07:00 +19°C° 0 mm 3 mps 738 mmHg 76%
    08:00 +20°C° 0 mm 3 mps 738 mmHg 71%
    09:00 +21°C° 0 mm 3 mps 739 mmHg 66%
    10:00 +22°C° 0 mm 3 mps 739 mmHg 61%
    11:00 +22°C° 0 mm 3 mps 739 mmHg 61%
    12:00 +24°C° 0 mm 3 mps 739 mmHg 60%
    13:00 +25°C° 0 mm 2 mps 739 mmHg 59%
    14:00 +24°C° 0.3 mm 3 mps 739 mmHg 63%
    15:00 +24°C° 0.3 mm 3 mps 739 mmHg 68%
    16:00 +24°C° 0.3 mm 3 mps 739 mmHg 73%
    17:00 +22°C° 0.3 mm 3 mps 739 mmHg 78%
    18:00 +20°C° 0.3 mm 3 mps 739 mmHg 83%
    19:00 +19°C° 0.3 mm 3 mps 739 mmHg 88%
    20:00 +18°C° 0.1 mm 3 mps 739 mmHg 89%
    21:00 +18°C° 0.1 mm 2 mps 739 mmHg 91%
    22:00 +17°C° 0.1 mm 2 mps 739 mmHg 92%
    23:00 +16°C° 0 mm 2 mps 739 mmHg 93%

    Pasado mañana, 7 Junio, Domingo

    Tiempo Temperatura Precipitaciones Viento Presión Humedad
    00:00 +16°C° 0 mm 2 mps 738 mmHg 93%
    01:00 +16°C° 0 mm 2 mps 738 mmHg 94%
    02:00 +16°C° 0 mm 2 mps 738 mmHg 93%
    03:00 +16°C° 0 mm 2 mps 738 mmHg 92%
    04:00 +16°C° 0 mm 2 mps 738 mmHg 91%
    05:00 +18°C° 0 mm 2 mps 738 mmHg 88%
    06:00 +19°C° 0 mm 2 mps 738 mmHg 85%
    07:00 +21°C° 0 mm 2 mps 738 mmHg 82%
    08:00 +22°C° 0 mm 3 mps 738 mmHg 76%
    09:00 +25°C° 0 mm 3 mps 738 mmHg 71%
    10:00 +26°C° 0 mm 4 mps 739 mmHg 65%
    11:00 +27°C° 0.7 mm 4 mps 739 mmHg 65%
    12:00 +27°C° 0.7 mm 4 mps 739 mmHg 65%
    13:00 +27°C° 0.7 mm 3 mps 739 mmHg 65%
    14:00 +27°C° 0.7 mm 3 mps 738 mmHg 67%
    15:00 +27°C° 0.7 mm 3 mps 738 mmHg 70%
    16:00 +26°C° 0.7 mm 3 mps 738 mmHg 73%
    17:00 +25°C° 0.2 mm 3 mps 738 mmHg 76%
    18:00 +24°C° 0.2 mm 2 mps 739 mmHg 79%
    19:00 +22°C° 0.2 mm 1 mps 739 mmHg 81%
    20:00 +20°C° 0.3 mm 2 mps 739 mmHg 83%
    21:00 +19°C° 0.3 mm 2 mps 739 mmHg 85%
    22:00 +19°C° 0.3 mm 2 mps 739 mmHg 88%
    23:00 +18°C° 0 mm 2 mps 739 mmHg 87%

    8 Junio, Lunes

    Tiempo Temperatura Precipitaciones Viento Presión Humedad
    00:00 +18°C° 0 mm 2 mps 739 mmHg 87%
    01:00 +18°C° 0 mm 2 mps 739 mmHg 86%
    02:00 +17°C° 0 mm 2 mps 739 mmHg 88%
    03:00 +16°C° 0 mm 2 mps 739 mmHg 90%
    04:00 +16°C° 0 mm 2 mps 739 mmHg 91%
    05:00 +17°C° 0 mm 2 mps 739 mmHg 88%
    06:00 +19°C° 0 mm 2 mps 739 mmHg 84%
    07:00 +21°C° 0 mm 2 mps 739 mmHg 81%
    08:00 +23°C° 0 mm 2 mps 739 mmHg 76%
    09:00 +24°C° 0 mm 2 mps 739 mmHg 71%
    10:00 +26°C° 0 mm 2 mps 739 mmHg 65%
    11:00 +26°C° 0.7 mm 2 mps 739 mmHg 66%
    12:00 +26°C° 0.7 mm 3 mps 738 mmHg 67%
    13:00 +27°C° 0.7 mm 3 mps 738 mmHg 67%
    14:00 +27°C° 0.8 mm 3 mps 738 mmHg 68%
    15:00 +26°C° 0.8 mm 2 mps 738 mmHg 69%
    16:00 +26°C° 0.8 mm 2 mps 738 mmHg 70%
    17:00 +25°C° 0.6 mm 2 mps 738 mmHg 75%
    18:00 +23°C° 0.6 mm 2 mps 738 mmHg 79%
    19:00 +21°C° 0.6 mm 2 mps 738 mmHg 84%
    20:00 +20°C° 0 mm 2 mps 738 mmHg 87%
    21:00 +19°C° 0 mm 3 mps 739 mmHg 91%
    22:00 +18°C° 0 mm 3 mps 739 mmHg 94%
    23:00 +18°C° 0 mm 3 mps 739 mmHg 95%

    9 Junio, Martes

    Tiempo Temperatura Precipitaciones Viento Presión Humedad
    00:00 +18°C° 0 mm 4 mps 739 mmHg 96%
    01:00 +17°C° 0 mm 4 mps 739 mmHg 97%
    02:00 +17°C° 0 mm 3 mps 739 mmHg 97%
    03:00 +17°C° 0 mm 3 mps 739 mmHg 97%
    04:00 +17°C° 0 mm 3 mps 739 mmHg 96%
    05:00 +17°C° 0 mm 3 mps 740 mmHg 96%
    06:00 +17°C° 0 mm 3 mps 740 mmHg 95%
    07:00 +17°C° 0 mm 2 mps 740 mmHg 94%
    08:00 +18°C° 0 mm 2 mps 740 mmHg 92%
    09:00 +18°C° 0 mm 2 mps 740 mmHg 90%
    10:00 +18°C° 0 mm 2 mps 741 mmHg 88%
    11:00 +19°C° 0 mm 2 mps 741 mmHg 87%
    12:00 +19°C° 0 mm 2 mps 740 mmHg 85%
    13:00 +20°C° 0 mm 2 mps 740 mmHg 84%
    14:00 +21°C° 0 mm 1 mps 740 mmHg 83%
    15:00 +21°C° 0 mm 1 mps 740 mmHg 82%
    16:00 +22°C° 0 mm 1 mps 740 mmHg 82%
    17:00 +21°C° 0 mm 1 mps 740 mmHg 84%
    18:00 +20°C° 0 mm 1 mps 740 mmHg 87%
    19:00 +20°C° 0 mm 1 mps 740 mmHg 90%
    20:00 +19°C° 0 mm 1 mps 741 mmHg 91%
    21:00 +19°C° 0 mm 1 mps 741 mmHg 92%
    22:00 +18°C° 0 mm 1 mps 741 mmHg 94%
    23:00 +18°C° 0 mm 1 mps 741 mmHg 94%

    10 Junio, Miércoles

    Tiempo Temperatura Precipitaciones Viento Presión Humedad
    00:00 +16°C° 0 mm 0 mps 741 mmHg 95%
    01:00 +16°C° 0 mm 0 mps 741 mmHg 95%
    02:00 +18°C° 0 mm 1 mps 741 mmHg 95%
    03:00 +18°C° 0 mm 1 mps 741 mmHg 96%
    04:00 +18°C° 0 mm 1 mps 741 mmHg 96%
    05:00 +19°C° 0 mm 1 mps 741 mmHg 93%
    06:00 +20°C° 0 mm 1 mps 742 mmHg 91%
    07:00 +21°C° 0 mm 1 mps 742 mmHg 89%
    08:00 +22°C° 0.1 mm 1 mps 742 mmHg 84%
    09:00 +23°C° 0.1 mm 1 mps 742 mmHg 80%
    10:00 +25°C° 0.1 mm 1 mps 742 mmHg 76%
    11:00 +25°C° 0.6 mm 1 mps 742 mmHg 72%
    12:00 +26°C° 0.6 mm 1 mps 742 mmHg 69%
    13:00 +27°C° 0.6 mm 1 mps 742 mmHg 65%
    14:00 +27°C° 0.5 mm 1 mps 742 mmHg 66%
    15:00 +27°C° 0.5 mm 1 mps 742 mmHg 66%
    16:00 +27°C° 0.5 mm 1 mps 742 mmHg 67%
    17:00 +25°C° 0.2 mm 1 mps 742 mmHg 73%
    18:00 +24°C° 0.2 mm 2 mps 742 mmHg 80%
    19:00 +21°C° 0.2 mm 2 mps 742 mmHg 87%
    20:00 +20°C° 0 mm 2 mps 743 mmHg 90%
    21:00 +19°C° 0 mm 3 mps 743 mmHg 93%
    22:00 +18°C° 0 mm 3 mps 743 mmHg 96%
    23:00 +18°C° 0 mm 3 mps 743 mmHg 97%
    Mostrar más